This is the latest recevied weather packets stored in our database for station/object SR5NLK-1. If no packets are shown the sender has not sent any weather packets the latest 1 day(s).
| Time | Temp. | Humidity | Pressure | Rain* | Wind** | Luminosity | Snow |
|---|---|---|---|---|---|---|---|
| 1778074950 | 28.33° C | 35% | 1054.6 hPa | 0 mm | - | - | - |
| 1778074050 | 27.78° C | 35% | 1013.1 hPa | 0 mm | - | - | - |
| 1778073750 | 27.78° C | 35% | 1016.6 hPa | 0 mm | - | - | - |
| 1778069850 | 28.33° C | 34% | 1033.7 hPa | 0 mm | - | - | - |
| 1778068290 | 29.44° C | 33% | 1075.2 hPa | 0 mm | - | - | - |
| 1778066551 | 28.89° C | 33% | 1033.4 hPa | 0 mm | - | - | - |
| 1778065651 | 28.33° C | 33% | 1042.8 hPa | 0 mm | - | - | - |
| 1778062350 | 28.89° C | 30% | 1051.4 hPa | 0 mm | - | - | - |
| 1778061151 | 28.89° C | 30% | 1013.5 hPa | 0 mm | - | - | - |
| 1778060551 | 28.89° C | 30% | 1071.9 hPa | 0 mm | - | - | - |
| 1778060370 | 28.89° C | 29% | 1039.7 hPa | 0 mm | - | - | - |
| 1778059351 | 29.44° C | 29% | 991.6 hPa | 0 mm | - | - | - |
| 1778059051 | 30° C | 28% | 1053.1 hPa | 0 mm | - | - | - |
| 1778058751 | 30.56° C | 28% | 1004.5 hPa | 0 mm | - | - | - |
| 1778058451 | 31.11° C | 28% | 1044.9 hPa | 0 mm | - | - | - |
| 1778058390 | 31.11° C | 28% | 1046.1 hPa | 0 mm | - | - | - |
| 1778058151 | 31.11° C | 28% | 1049.1 hPa | 0 mm | - | - | - |
| 1778057851 | 31.11° C | 28% | 973.8 hPa | 0 mm | - | - | - |
| 1778057551 | 31.11° C | 28% | 1034.5 hPa | 0 mm | - | - | - |
| 1778057251 | 31.11° C | 29% | 1042.8 hPa | 0 mm | - | - | - |
| 1778056951 | 31.11° C | 29% | 1046 hPa | 0 mm | - | - | - |
| 1778056651 | 31.11° C | 28% | 1054.5 hPa | 0 mm | - | - | - |
| 1778056410 | 31.11° C | 28% | 1035.2 hPa | 0 mm | - | - | - |
| 1778056351 | 31.11° C | 28% | 1081.5 hPa | 0 mm | - | - | - |
| 1778056051 | 31.11° C | 28% | 1043.1 hPa | 0 mm | - | - | - |
* Rain latest hour (hover to see other rain measurements)
** Current wind speed in m/s (hover to see current wind gust speed)